Waarnemingen

Advertentie
Mijn weer
Aboyne, Groot Brittannië (3080): temperatuur & dauwpunt: 11.01.2019 00:00:00 - 17.01.2019 00:00:00 (GMT)Aboyne, Groot Brittannië (3080): temperatuur -20cm & temperatuur -100cm: 11.01.2019 00:00:00 - 17.01.2019 00:00:00 (GMT)Aboyne, Groot Brittannië (3080): windsnelheid & windstoten: 11.01.2019 00:00:00 - 17.01.2019 00:00:00 (GMT)Aboyne, Groot Brittannië (3080): windrichting: 11.01.2019 00:00:00 - 17.01.2019 00:00:00 (GMT)Aboyne, Groot Brittannië (3080): luchtdruk: 11.01.2019 00:00:00 - 17.01.2019 00:00:00 (GMT)Aboyne, Groot Brittannië (3080): zicht: 11.01.2019 00:00:00 - 17.01.2019 00:00:00 (GMT)Aboyne, Groot Brittannië (3080): neerslag: 11.01.2019 00:00:00 - 17.01.2019 00:00:00 (GMT)
Datum & Tijd tt [°C] td [°C] tt -20cm [°C] tt -100cm [°C] ff [km/u] ff [kn] fx [km/u] fx [kn] dd ppp [hPa] vv [km] rr [mm]
17.01.2019 00:00:00 -0,4 -2,4 - - 18 10 - - WNW 1002,2 50 0,0
16.01.2019 23:00:00 0,2 -3,1 - - 15 8 54 29 W 1001,6 17 0,0
16.01.2019 22:00:00 0,2 -1,2 - - 21 11 54 29 NW 1000,2 6 0,2
16.01.2019 21:00:00 1,2 0,2 - - 16 9 - - NW 998,3 4,2 0,2
16.01.2019 20:00:00 2,5 0,1 - - 18 10 - - NW 996,5 45 0,0
16.01.2019 19:00:00 2,3 0,0 - - 21 11 - - WNW 994,8 50 0,0
16.01.2019 18:00:00 2,4 0,5 - - 16 9 - - WNW 994,4 50 0,2
16.01.2019 17:00:00 2,6 1,0 - - 13 7 - - NW 993,7 50 0,2
16.01.2019 16:00:00 3,3 0,2 - - 9 5 - - W 992,8 45 0,0
16.01.2019 15:00:00 6,1 0,9 - - 18 10 - - W 991,4 50 0,0
16.01.2019 14:00:00 6,5 0,9 - - 18 10 - - WNW 991,5 45 0,0
16.01.2019 13:00:00 5,0 1,7 - - 24 13 - - W 991,8 40 0,0
16.01.2019 12:00:00 5,1 0,7 - - 16 9 - - W 991,7 50 0,0
16.01.2019 11:00:00 6,2 1,4 - - 8 4 - - W 992,0 50 0,0
16.01.2019 10:00:00 4,6 2,0 - - 4 2 - - N 992,3 45 0,0
16.01.2019 09:00:00 3,3 1,9 4,2 4,7 2 1 - - NO 992,3 50 0,0
16.01.2019 08:00:00 4,2 2,7 - - 2 1 - - W 992,1 50 0,0
16.01.2019 07:00:00 5,0 3,2 - - 8 4 - - W 992,5 45 0,0
16.01.2019 06:00:00 4,9 3,4 - - 11 6 - - WZW 992,8 50 0,0
16.01.2019 05:00:00 5,2 4,2 - - 4 2 - - WNW 993,1 40 0,2
16.01.2019 04:00:00 5,9 4,7 - - 4 2 - - WNW 993,6 26 0,2
16.01.2019 03:00:00 6,9 5,6 - - 9 5 - - W 994,1 29 0,4
16.01.2019 02:00:00 9,1 5,1 - - 21 11 50 27 WZW 993,8 50 0,0
16.01.2019 01:00:00 9,4 5,0 - - 28 15 46 25 ZW 994,0 30 0,0
16.01.2019 00:00:00 9,4 5,1 - - 29 16 46 25 ZW 994,6 50 0,0
15.01.2019 23:00:00 8,9 4,8 - - 22 12 - - ZW 995,5 50 0,0
15.01.2019 22:00:00 9,1 4,6 - - 18 10 - - ZW 996,5 50 0,0
15.01.2019 21:00:00 8,7 3,9 - - 9 5 - - WZW 997,6 50 0,0
15.01.2019 20:00:00 8,3 3,2 - - 4 2 52 28 OZO 998,6 50 0,0
15.01.2019 19:00:00 9,6 2,7 - - 31 17 54 29 W 999,1 50 0,0
15.01.2019 18:00:00 8,4 3,0 - - 9 5 - - W 1000,2 45 0,0
15.01.2019 17:00:00 9,1 3,8 - - 22 12 - - W 1001,4 45 0,0
15.01.2019 16:00:00 9,7 6,1 - - 16 9 - - W 1001,8 50 0,0
15.01.2019 15:00:00 10,3 6,6 - - 26 14 - - WZW 1002,4 30 0,0
15.01.2019 14:00:00 10,7 6,8 - - 16 9 - - W 1002,9 24 0,0
15.01.2019 13:00:00 11,0 6,5 - - 24 13 54 29 W 1003,4 45 0,0
15.01.2019 12:00:00 10,8 6,3 - - 26 14 - - W 1004,2 35 0,0
15.01.2019 11:00:00 10,6 6,3 - - 22 12 - - WZW 1005,0 50 0,0
15.01.2019 10:00:00 10,3 6,7 - - 13 7 - - W 1005,5 50 0,0
15.01.2019 09:00:00 9,7 7,4 4,0 4,7 9 5 - - W 1005,7 21 0,0
15.01.2019 08:00:00 9,8 6,4 - - 8 4 - - W 1005,4 50 0,0
15.01.2019 07:00:00 9,9 6,5 - - 13 7 - - W 1005,5 45 0,0
15.01.2019 06:00:00 9,3 6,1 - - 4 2 - - W 1005,7 45 0,0
15.01.2019 05:00:00 9,9 6,5 - - 5 3 - - W 1005,7 50 0,0
15.01.2019 04:00:00 10,0 6,3 - - 18 10 - - W 1006,0 50 0,0
15.01.2019 03:00:00 9,1 5,4 - - 18 10 - - W 1006,8 50 0,0
15.01.2019 02:00:00 8,8 4,5 - - 24 13 - - W 1007,3 50 0,0
15.01.2019 01:00:00 8,7 4,1 - - 11 6 - - WZW 1008,2 45 0,0
15.01.2019 00:00:00 8,6 3,9 - - 11 6 - - WNW 1008,9 50 0,0
14.01.2019 23:00:00 7,3 3,8 - - 13 7 - - W 1009,5 50 0,0
14.01.2019 22:00:00 4,5 2,6 - - 11 6 - - WNW 1010,8 50 0,0
14.01.2019 21:00:00 5,6 2,1 - - 15 8 - - W 1011,5 50 0,0
14.01.2019 20:00:00 6,2 2,0 - - 22 12 - - W 1012,3 50 0,0
14.01.2019 19:00:00 5,8 1,9 - - 18 10 - - W 1013,1 50 0,0
14.01.2019 18:00:00 3,0 0,2 - - 5 3 - - W 1014,2 40 0,0
14.01.2019 17:00:00 4,9 0,6 - - 13 7 - - WNW 1014,4 45 0,0
14.01.2019 16:00:00 5,0 1,1 - - 18 10 - - WNW 1014,6 50 0,0
14.01.2019 15:00:00 4,6 0,8 - - 13 7 - - W 1014,9 50 0,0
14.01.2019 14:00:00 3,8 -0,6 - - 11 6 - - W 1015,5 50 0,0
14.01.2019 13:00:00 4,4 -1,0 - - 9 5 - - W 1016,4 50 0,0
14.01.2019 12:00:00 3,0 -1,5 - - 9 5 - - NW 1017,1 50 0,0
14.01.2019 11:00:00 2,0 -1,3 - - 8 4 - - W 1017,8 40 0,0
14.01.2019 10:00:00 -0,1 -0,7 - - 5 3 - - W 1018,5 35 0,0
14.01.2019 09:00:00 -1,2 -2,6 4,2 4,7 5 3 - - W 1018,4 35 0,0
14.01.2019 08:00:00 0,9 -0,8 - - 9 5 - - W 1017,7 30 0,0
14.01.2019 07:00:00 1,3 -0,4 - - 11 6 - - WNW 1017,1 45 0,0
14.01.2019 06:00:00 1,5 -0,2 - - 13 7 - - WZW 1016,9 50 0,0
14.01.2019 05:00:00 1,4 -0,3 - - 13 7 - - W 1016,4 45 0,0
14.01.2019 04:00:00 1,3 -0,2 - - 9 5 - - W 1015,9 40 0,0
14.01.2019 03:00:00 1,9 1,1 - - 9 5 - - W 1015,3 45 0,0
14.01.2019 02:00:00 1,9 1,1 - - 5 3 - - W 1014,5 26 0,0
14.01.2019 01:00:00 1,9 0,9 - - 4 2 - - N 1013,7 29 0,0
14.01.2019 00:00:00 2,4 1,3 - - 5 3 - - NO 1012,5 11 0,2
13.01.2019 23:00:00 3,0 1,8 - - 4 2 - - N 1011,2 8 0,2
13.01.2019 22:00:00 3,8 1,9 - - 9 5 - - NO 1009,5 17 0,4
13.01.2019 21:00:00 5,6 2,0 - - 18 10 - - W 1007,2 40 0,0
13.01.2019 20:00:00 5,7 1,9 - - 22 12 - - W 1006,2 45 0,0
13.01.2019 19:00:00 5,7 1,8 - - 22 12 - - W 1005,1 50 0,0
13.01.2019 18:00:00 4,7 1,5 - - 21 11 - - W 1004,3 50 0,0
13.01.2019 17:00:00 5,1 2,1 - - 22 12 46 25 WNW 1003,7 35 0,0
13.01.2019 16:00:00 5,4 2,0 - - 22 12 46 25 WNW 1002,8 40 0,0
13.01.2019 15:00:00 6,4 1,8 - - 22 12 52 28 W 1002,3 35 0,0
13.01.2019 14:00:00 7,2 1,6 - - 34 18 54 29 W 1002,2 50 0,0
13.01.2019 13:00:00 7,8 1,8 - - 34 18 61 33 WNW 1002,0 18 0,0
13.01.2019 12:00:00 7,6 2,6 - - 29 16 54 29 W 1001,8 50 0,0
13.01.2019 11:00:00 7,5 2,8 - - 29 16 68 37 WNW 1001,8 40 0,0
13.01.2019 10:00:00 7,8 2,0 - - 31 17 57 31 W 1001,4 45 0,0
13.01.2019 09:00:00 8,0 2,3 4,2 4,5 35 19 65 35 W 1001,0 26 0,2
13.01.2019 08:00:00 8,9 3,5 - - 39 21 68 37 W 1000,8 13 0,0
13.01.2019 07:00:00 10,8 4,0 - - 35 19 67 36 WNW 1000,2 50 0,0
13.01.2019 06:00:00 10,2 6,0 - - 28 15 48 26 W 1000,7 50 0,0
13.01.2019 05:00:00 10,5 6,1 - - 26 14 46 25 W 1001,2 50 0,0
13.01.2019 04:00:00 10,3 6,4 - - 26 14 - - W 1002,0 50 0,0
13.01.2019 03:00:00 10,5 6,3 - - 28 15 61 33 W 1002,7 40 0,0
13.01.2019 02:00:00 10,8 6,8 - - 21 11 50 27 W 1003,7 40 0,0
13.01.2019 01:00:00 11,9 6,7 - - 29 16 57 31 W 1003,7 40 0,0
13.01.2019 00:00:00 12,2 6,9 - - 29 16 50 27 WNW 1002,8 50 0,0
12.01.2019 23:00:00 12,0 7,1 - - 13 7 - - WNW 1004,3 30 0,0
12.01.2019 22:00:00 12,4 6,6 - - 11 6 - - NW 1005,2 50 0,0
12.01.2019 21:00:00 11,9 6,7 - - 18 10 - - W 1006,1 50 0,0
12.01.2019 20:00:00 11,9 6,6 - - 24 13 - - W 1007,2 50 0,0
12.01.2019 19:00:00 11,4 6,1 - - 22 12 - - W 1007,6 50 0,0
12.01.2019 18:00:00 10,6 6,1 - - 24 13 46 25 W 1008,4 50 0,0
12.01.2019 17:00:00 10,2 6,2 - - 26 14 48 26 W 1008,5 40 0,0
12.01.2019 16:00:00 10,0 5,5 - - 24 13 55 30 WNW 1008,5 50 0,0
12.01.2019 15:00:00 9,8 4,7 - - 22 12 - - W 1008,9 50 0,0
12.01.2019 14:00:00 9,3 3,6 - - 18 10 - - WNW 1009,5 45 0,0
12.01.2019 13:00:00 9,5 2,8 - - 24 13 50 27 WNW 1009,9 50 0,0
12.01.2019 12:00:00 9,3 2,9 - - 24 13 48 26 W 1010,5 50 0,0
12.01.2019 11:00:00 8,3 3,3 - - 26 14 48 26 WNW 1010,9 50 0,0
12.01.2019 10:00:00 7,7 2,8 - - 26 14 46 25 WNW 1011,7 50 0,0
12.01.2019 09:00:00 7,2 2,6 3,9 4,4 22 12 - - WNW 1012,0 50 0,0
12.01.2019 08:00:00 7,1 2,7 - - 22 12 52 28 W 1012,2 50 0,0
12.01.2019 07:00:00 7,0 2,3 - - 21 11 46 25 W 1012,3 50 0,0
12.01.2019 06:00:00 6,6 2,3 - - 21 11 - - W 1012,3 50 0,0
12.01.2019 05:00:00 6,7 2,2 - - 16 9 - - W 1012,9 45 0,0
12.01.2019 04:00:00 7,4 2,4 - - 22 12 54 29 WNW 1013,3 50 0,0
12.01.2019 03:00:00 7,1 3,0 - - 24 13 - - WNW 1013,4 50 0,0
12.01.2019 02:00:00 6,4 2,4 - - 11 6 - - WNW 1013,7 50 0,0
12.01.2019 01:00:00 7,5 5,8 - - 11 6 - - W 1014,5 50 0,2
12.01.2019 00:00:00 8,6 4,7 - - 16 9 - - ZW 1014,6 50 0,0
11.01.2019 23:00:00 5,0 3,0 - - 5 3 - - NO 1016,5 50 0,0
11.01.2019 22:00:00 4,4 4,2 - - 5 3 - - O 1018,0 50 0,0
11.01.2019 21:00:00 0,7 0,6 - - 5 3 - - WZW 1020,3 50 0,0
11.01.2019 20:00:00 -0,2 -1,0 - - 4 2 - - W 1021,9 50 0,0
11.01.2019 19:00:00 1,1 -0,5 - - 5 3 - - WZW 1022,9 50 0,0
11.01.2019 18:00:00 5,3 2,3 - - 0 0 - - N 1023,4 50 0,0
11.01.2019 17:00:00 6,5 2,4 - - 5 3 - - W 1024,1 50 0,0
11.01.2019 16:00:00 8,3 3,5 - - 5 3 - - WZW 1024,6 50 0,0
11.01.2019 15:00:00 9,5 3,5 - - 9 5 - - WZW 1025,0 50 0,0
11.01.2019 14:00:00 9,3 3,4 - - 18 10 - - WNW 1025,3 50 0,0
11.01.2019 13:00:00 9,3 3,6 - - 18 10 - - WNW 1026,3 45 0,0
11.01.2019 12:00:00 9,1 3,2 - - 26 14 - - W 1027,1 50 0,0
11.01.2019 11:00:00 9,0 3,2 - - 22 12 - - W 1027,6 50 0,0
11.01.2019 10:00:00 8,3 3,1 - - 13 7 - - W 1028,1 50 0,0
11.01.2019 09:00:00 8,0 3,0 3,7 4,2 15 8 - - W 1028,2 50 0,0
11.01.2019 08:00:00 7,8 2,8 - - 18 10 - - W 1028,2 50 0,0
11.01.2019 07:00:00 7,8 2,6 - - 16 9 - - W 1028,4 50 0,0
11.01.2019 06:00:00 7,4 2,3 - - 18 10 - - W 1028,3 50 0,0
11.01.2019 05:00:00 7,4 2,3 - - 15 8 - - W 1028,9 50 0,0
11.01.2019 04:00:00 7,5 3,0 - - 18 10 - - WNW 1029,0 50 0,0
11.01.2019 03:00:00 7,8 3,3 - - 16 9 - - W 1028,8 50 0,0
11.01.2019 02:00:00 7,8 3,7 - - 18 10 - - WNW 1028,5 50 0,0
11.01.2019 01:00:00 7,6 3,7 - - 16 9 - - WNW 1028,3 50 0,0
11.01.2019 00:00:00 8,0 3,7 - - 21 11 - - W 1028,4 50 0,0

tt = temperatuur
td = dauwpunt
tt -20cm = temperatuur -20cm
tt -100cm = temperatuur -100cm
ff = windsnelheid
fx = windstoten
dd = windrichting
ppp = luchtdruk
vv = zicht
rr = neerslag

Weerstations in de omgeving